Content
SEND FEEDBACK

Daily
Averages
Monthly
Summary
United States of America

PAAKEA, HAWAII


Home > North America > United States > Hawaii
Elevation: 1200 feet     Latitude: 20 49N     Longitude: 156 07W

WEATHER
 
SELECT A DAY
Number of Records: 217,226;   Date Range: 1/1/95 - 8/12/14
 
SHARE

PRINT THIS DATA

[ ← Previous Day ]
WEATHER ALMANAC - JANUARY 30, 2013
[ Next Day → ]
[ °C ]   °F
Weather ElementAverageHighLow
Temperature73 °F78.1 °F (12:54 pm)68 °F (3:54 am)
Dewpoint66 °F66.9 °F (9:54 am)64 °F (3:54 am)
Humidity79 %90 % (5:54 am)68 % (12:54 pm)
Barometer30.06 in30.10 in (9:54 am)30.02 in (1:54 am)
Wind Speed6.4 mph10.4 mph (12:54 pm)
Weather ElementAverage
Visibility10 mi
Wind DirectionSE (131.3 °)

Weather ElementTotal
Precipitation---
Cooling Degree Days8.1 (Base 65)
Growing Degree Days23.1 (Base 50)
Averaged from 23 records on January 30, 2013
WEATHER CONDITIONS BREAKOUT
WIND DIRECTION BREAKOUT
WEATHER BY HOUR - JANUARY 30, 2013
[ °C ]   °F
Local TimeTemperatureDewpointHumidityBarometerVisibilityWind DirectionWind SpeedGust SpeedPrecipitationEventsConditions
1:54 AM70.0 °F64.9 °F84 %30.02 in10.0 miNNW (330°)3.5 mph0.00 inOvercast
2:54 AM72.0 °F64.9 °F78 %30.02 in10.0 miNorth (360°)6.9 mphOvercast
3:54 AM68.0 °F64.0 °F87 %30.02 in10.0 miSSW (200°)3.5 mphOvercast
4:54 AM68.0 °F64.0 °F87 %30.03 in10.0 miSW (230°)3.5 mphOvercast
5:54 AM68.0 °F64.9 °F90 %30.04 in10.0 miSouth (170°)3.5 mphOvercast
6:54 AM68.0 °F64.9 °F90 %30.05 in10.0 miSE (130°)5.8 mphMostly Cloudy
7:54 AM68.0 °F64.9 °F90 %30.07 in10.0 miCalmOvercast
8:54 AM71.1 °F64.9 °F81 %30.08 in10.0 miCalmMostly Cloudy
9:54 AM75.0 °F66.9 °F76 %30.10 in10.0 miCalmMostly Cloudy
10:54 AM77.0 °F66.9 °F71 %30.09 in10.0 miNNW (340°)5.8 mphScattered Clouds
11:54 AM77.0 °F66.9 °F71 %30.08 in10.0 miNNW (340°)6.9 mphMostly Cloudy
12:54 PM78.1 °F66.9 °F68 %30.06 in10.0 miNorth (10°)10.4 mphMostly Cloudy
1:54 PM77.0 °F66.9 °F71 %30.04 in10.0 miNorth (360°)9.2 mphMostly Cloudy
2:54 PM77.0 °F66.0 °F69 %30.03 in10.0 miNorth (350°)9.2 mphMostly Cloudy
3:54 PM75.9 °F66.0 °F71 %30.03 in10.0 miNorth (10°)8.1 mph0.00 inMostly Cloudy
4:54 PM75.0 °F66.9 °F76 %30.04 in10.0 miNorth (10°)9.2 mphMostly Cloudy
5:54 PM73.9 °F66.0 °F76 %30.05 in10.0 miNNE (20°)9.2 mphMostly Cloudy
6:54 PM73.9 °F66.9 °F79 %30.06 in10.0 miNNE (20°)6.9 mphScattered Clouds
7:54 PM73.9 °F66.9 °F79 %30.07 in10.0 miNE (40°)9.2 mphScattered Clouds
8:54 PM73.0 °F66.9 °F81 %30.09 in10.0 miNNE (20°)8.1 mphScattered Clouds
9:54 PM73.0 °F66.0 °F79 %30.10 in10.0 miNE (40°)10.4 mphScattered Clouds
10:54 PM73.0 °F66.9 °F81 %30.09 in10.0 miNNE (20°)9.2 mphScattered Clouds
11:54 PM73.0 °F66.9 °F81 %30.08 in10.0 miNNE (20°)9.2 mphMostly Cloudy
Hourly data recorded from PHOG, located miles away from Paakea, Hawaii







STORIES FROM OUR PARTNERS